weather.gov     
National Weather Service

Terminal Aerodrome Forecast
NWS Homepage
This page is being discontinued on March 12, 2014.
The same data is available at this site. Please update your bookmarks.
Thank you, and we apologize for the inconvenience.
Please send an email to SR-SRH.Webmaster@noaa.gov with any concerns.


Current Version
Previous Version:    01  02  03  04  05  06  07  08  09  10  11  12  13  14  15  16  17  18  19  20  21  22  23  24  25  26  27  28  29  30  
   31  32  33  34  35  36  37  
[Printable]
421
FTUS43 KAPX 300551
TAFAPN
TAF
KAPN 300551Z 3006/3106 33014G23KT 4SM -SHSN BLSN SCT018 BKN025
      TEMPO 3006/3010 1SM -SHSN BLSN VV012
     FM301400 33011G20KT 6SM -SN BLSN SCT025
     FM302100 31008KT P6SM SKC
     FM310100 24003KT P6SM OVC120=


421
FTUS43 KAPX 300551
TAFAPN
TAF
KAPN 300551Z 3006/3106 33014G23KT 4SM -SHSN BLSN SCT018 BKN025
      TEMPO 3006/3010 1SM -SHSN BLSN VV012
     FM301400 33011G20KT 6SM -SN BLSN SCT025
     FM302100 31008KT P6SM SKC
     FM310100 24003KT P6SM OVC120=




U.S. Dept. of Commerce
NOAA National Weather Service
1325 East West Highway
Silver Spring, MD 20910
E-mail: w-nws.webmaster@noaa.gov
Page last modified: May 16, 2007
NATIONAL WEATHER SERVICE: for Safety, for Work, for Fun - FOR LIFE